Hourly Data Report for July 22, 2021

RANKIN INLET A
NUNAVUT
Current Station Operator: NAVCAN

62°48'38.000" N
92°06'53.000" W
32.30 m
2303405
71083
YRT

Download Data

Hourly Data (July 2021)
Hourly Data Report for July 22, 2021
TIME
LST
Temp Definition
°C
Dew Point Definition
°C
Rel Hum Definition
%
Precip. Amount Definition
mm

Wind Dir Definition
10's deg

Wind Spd Definition
km/h
Visibility Definition
km
Stn Press Definition
kPa
Hmdx Definition


Wind Chill Definition


Weather Definition


00:00 12.7 10.5 86   21 12 24.1 101.40     Mostly Cloudy
01:00 12.2 9.3 82   25 12 24.1 101.41     LegendNANA
02:00 11.4 9.1 86   26 6 24.1 101.41     LegendNANA
03:00 11.1 9.4 89   24 18 24.1 101.39     Mainly Clear
04:00 10.9 9.4 90   23 12 24.1 101.38     LegendNANA
05:00
06:00 13.0 9.3 78   23 16 24.1 101.36     Mainly Clear
07:00 13.7 9.1 74   22 17 24.1 101.29     LegendNANA
08:00 14.1 9.3 73   20 18 24.1 101.23     LegendNANA
09:00 15.0 8.8 66   21 26 48.3 101.19     Mainly Clear
10:00 15.5 7.4 58   21 28 48.3 101.18     LegendNANA
11:00 15.0 7.2 59   18 25 24.1 101.09     LegendNANA
12:00 14.6 7.1 60   20 34 24.1 101.03     Mainly Clear
13:00 14.5 7.5 63   19 28 48.3 101.01     LegendNANA
14:00 14.0 7.2 64   19 32 24.1 100.89     LegendNANA
15:00 13.7 7.4 66   19 33 24.1 100.86     Mostly Cloudy
16:00 13.3 7.4 67   20 32 24.1 100.78     LegendNANA
17:00 12.2 7.1 71   19 28 24.1 100.73     LegendNANA
18:00 11.5 7.0 74   19 30 24.1 100.68     Mostly Cloudy
19:00 10.6 6.9 78   18 21 24.1 100.60     LegendNANA
20:00 10.3 6.9 80   19 24 24.1 100.57     LegendNANA
21:00 9.8 6.8 81   19 29 24.1 100.51     Cloudy
22:00 9.4 6.8 84   17 23 16.1 100.39     LegendNANA
23:00 9.1 7.5 90   16 22 16.1 100.35     Rain

Notes on Data Quality.

Legend

  • E = Estimated
  • M = Missing
  • NA = Not Available*
  • [empty] = Indicates an unobserved value
Date modified: